Temp_Advection
nan nan nan nan nan nan nan nan nan nan nan nan nan nan nan nan nan nan nan nan nan nan nan nan nan nan nan nan nan nan nan nan nan nan nan nan nan nan nan nan nan nan nan nan nan nan nan nan nan nan nan nan nan nan nan nan nan nan nan nan nan nan
nan 0 1 1 1 0 0 0 0 0 -0 -0 0 0 0 0 0 0 0 0 0 0 0 0 -0 -0 0 0 -0 -0 0 0 -0 -0 -0 -0 0 0 0 0 -0 -0 -0 -0 -0 -0 -0 0 -0 -0 -0 -0 0 0 0 0 0 -0 -0 -0 -0 nan
nan 1 1 1 1 1 1 1 0 -0 -0 0 -0 -0 0 0 0 0 0 0 0 0 0 0 -0 -0 0 0 0 -0 -0 0 0 0 -0 -0 -0 -0 0 0 0 0 0 0 0 0 0 0 -0 -0 0 0 0 0 0 0 0 0 -0 -0 -0 nan
nan 1 1 1 1 0 1 0 -0 -0 0 0 -0 -0 0 0 0 0 0 0 0 0 0 0 0 0 0 0 0 0 -0 -0 -0 0 0 0 0 -0 -0 -0 -0 0 0 0 0 0 0 0 0 0 0 0 0 -0 0 0 0 0 -0 -0 -0 nan
nan 1 1 1 0 0 0 -0 -0 0 0 0 -0 -0 -0 0 0 0 -0 0 0 0 0 0 0 0 0 -0 -0 0 -0 -0 -0 -0 -0 0 0 0 0 -0 -0 0 0 0 0 0 0 0 0 0 0 -0 0 -0 0 0 0 0 -0 -0 -0 nan
nan 1 1 0 0 0 0 -0 -0 0 0 0 0 0 -0 -0 0 0 0 0 0 0 0 0 0 0 0 -0 -0 0 0 -0 -0 -0 -0 -0 -0 0 0 0 0 0 0 0 0 0 0 0 0 0 0 -0 -0 0 0 0 -0 -0 -0 -0 -0 nan
nan 1 0 0 0 0 0 -0 0 0 0 0 0 0 -0 -0 -0 0 0 0 0 0 0 0 -0 -0 0 0 0 0 0 -0 0 0 -0 -0 -0 -0 -0 -0 0 0 0 0 0 -0 -0 -0 -0 -0 -0 -0 -0 -0 -0 -0 -0 0 -0 -0 -0 nan
nan 1 0 0 0 0 0 0 0 0 0 0 0 0 0 -0 -0 -0 0 0 0 0 0 0 -0 -0 -0 0 0 -0 -0 -0 -0 0 0 -0 -0 -0 -0 -0 -0 -0 -0 -0 -0 -0 -0 -0 -0 -0 -0 -0 -0 -0 -0 -0 -0 0 0 -0 -0 nan
nan 0 0 0 -0 0 0 0 0 0 -0 0 0 0 0 0 -0 -0 -0 0 -0 -0 -0 0 0 -0 -0 0 0 -0 -0 0 -0 0 0 0 -0 -0 0 -0 -0 0 -0 0 -0 -0 -0 -0 -0 -0 -0 -0 -0 -0 -0 0 0 0 0 0 -0 nan
nan -0 0 -0 -0 0 -0 0 0 -0 0 0 0 0 0 0 0 -0 -0 -0 -0 0 -0 -0 0 0 0 -0 -0 -0 0 -0 -0 0 0 0 0 0 0 0 -0 0 0 -0 0 -0 -0 -0 -0 -0 -0 -0 -0 0 0 0 0 0 0 0 -0 nan
nan -0 -0 -0 -0 -0 -0 0 -0 -0 0 0 -0 -0 0 0 0 0 0 0 -0 0 0 0 -0 -0 -0 -0 -0 -0 -0 -0 -0 -0 0 0 0 0 0 0 -0 -0 -0 -0 -0 -0 -0 -0 -0 -0 -0 -0 -0 -0 -0 -0 -0 -0 -0 -0 -0 nan
nan -1 -1 -0 -0 -0 -0 0 0 0 0 -0 -0 0 0 0 0 0 0 0 0 0 0 -0 -0 -0 -0 -0 -0 -0 -0 -0 -0 -0 -0 -0 -0 -0 -0 -0 -0 -0 -0 -0 -0 -0 -0 -0 -0 -0 -0 -0 -0 -0 -0 -0 -0 -0 -0 -0 -0 nan
nan -0 -0 -0 -0 -0 -0 -0 0 0 0 0 0 0 0 0 0 0 0 0 0 0 -0 -0 -0 -0 -0 -0 -0 -0 -0 -0 -0 -0 -0 -0 -0 -0 -0 -0 -0 -0 -0 -0 -0 -0 -0 -0 -0 -0 -0 -0 -0 -0 -0 -0 -0 -0 -0 -0 -0 nan
nan 0 0 -0 0 -0 -0 -0 0 0 0 0 0 0 0 0 0 0 0 0 0 0 -0 -0 -0 -0 -0 -0 -0 -0 -0 -0 -0 -0 -0 -0 -0 -0 -0 -0 -0 -0 0 0 0 0 0 0 0 0 0 -0 -0 -0 -0 -0 -0 -0 -0 -0 -0 nan
nan 1 1 0 0 -0 -0 0 0 0 0 0 0 0 -0 -0 0 0 -0 -0 0 -0 -0 -0 -0 -0 0 -0 -0 -0 -0 -0 -0 -0 -0 -0 -0 -0 -0 -0 0 0 0 0 0 0 0 0 0 0 0 0 -0 -0 -0 -0 -0 -0 -0 -0 -0 nan
nan 1 0 0 -0 0 0 0 0 0 0 0 0 -0 -0 -0 -0 -0 -0 -0 0 -0 0 0 0 0 0 -0 -0 -0 -0 -0 -0 -0 0 0 0 0 0 0 0 0 0 0 0 0 0 0 0 0 0 0 -0 -0 -0 -0 -0 -0 -0 -0 -0 nan
nan 0 0 0 0 0 0 0 0 0 0 0 -0 -0 -0 -0 -0 -0 -0 0 0 0 -0 -0 0 0 -0 -0 -0 -0 -0 -0 -0 -0 -0 -0 -0 -0 0 0 0 0 0 0 0 0 0 0 0 0 0 0 -0 -0 -0 -0 -0 -0 -0 -0 -0 nan
nan 0 0 1 0 0 0 0 0 0 0 -0 -0 -0 -0 -0 -0 -0 0 0 0 -0 -0 -0 0 0 -0 -0 -0 -0 -0 -0 -0 -0 -0 -0 -0 -0 -0 -0 -0 0 0 0 0 0 0 0 0 0 0 0 0 0 -0 -0 -0 -0 -0 -0 -0 nan
nan 1 1 0 -0 0 0 0 0 -0 -0 -0 -0 -0 -0 -0 0 0 0 0 -0 -0 -0 0 0 0 0 -0 -0 -0 -0 -0 -0 -0 -0 -0 -0 -0 -0 -0 -0 -0 0 0 0 0 0 0 0 0 0 0 0 0 -0 -0 -0 -0 -0 -0 -0 nan
nan 1 1 0 0 0 0 0 -0 -0 -0 -0 -0 -0 0 0 0 0 -0 -0 -0 -0 0 0 0 0 0 -0 -0 -0 -0 -0 -0 -0 -0 -0 -0 -0 -0 -0 0 -0 -0 -0 -0 -0 -0 -0 0 0 0 0 0 -0 -0 -0 -0 -0 -0 -0 -0 nan
nan -0 -0 0 0 0 -0 -0 -0 -0 -0 0 0 0 0 0 0 -0 -0 -0 -0 0 0 -0 -0 -0 -0 -0 -0 -0 -0 -0 0 0 -0 -0 -0 0 0 0 0 -0 -0 -0 -0 -0 -0 -0 0 0 0 0 0 -0 -0 -0 -0 -0 -0 -0 -0 nan
nan -0 -0 -0 -0 0 -0 -0 -0 -0 0 0 0 0 0 0 0 -0 -0 0 0 0 0 -0 0 -0 -0 -0 -0 -0 -0 -0 -0 0 0 0 0 0 0 -0 -0 -0 -0 -0 -0 -0 -0 -0 0 0 0 0 0 -0 -0 -0 -0 -0 -0 -0 -0 nan
nan -0 -0 -0 0 0 0 0 0 0 0 0 0 0 0 0 0 0 0 0 0 0 0 0 0 0 -0 -0 -0 -0 -0 -0 -0 -0 -0 0 0 -0 -0 -0 -0 -0 -0 -0 -0 -0 -0 -0 -0 0 0 -0 -0 -0 -0 0 -0 -0 -0 -0 0 nan
nan -1 -0 0 0 0 0 0 0 0 0 0 0 0 -0 0 0 0 0 0 0 0 0 -0 -0 0 0 -0 -0 -0 -0 -0 -0 -0 -0 -0 -0 -0 -0 -0 -0 -0 -0 -0 -0 -0 -0 -0 -0 -0 -0 -0 -0 -0 -0 -0 -0 -0 -0 -0 -0 nan
nan -0 0 1 0 0 0 0 0 0 0 0 0 -0 -0 -0 0 0 0 0 0 0 -0 -0 -0 0 -0 -0 0 -0 -0 -0 -0 0 -0 -0 -0 -0 -0 -0 -0 -0 -0 -0 -0 0 -0 0 0 -0 -0 -0 -0 -0 -1 -0 -0 -0 -0 -0 -1 nan
nan 1 1 0 0 0 0 -0 -0 0 0 0 -0 -0 -0 0 0 -0 -0 -0 0 0 0 -0 -0 -0 -0 -0 0 -0 -0 0 0 0 -0 -0 -0 -0 0 -0 -0 -0 -0 -0 -0 0 0 -0 0 -0 -0 -0 -0 -0 -0 -0 -1 -0 -0 -0 -1 nan
nan 1 1 0 0 0 0 -0 0 0 -0 -0 -0 -0 -0 0 0 -0 -0 -0 -0 0 0 0 -0 -0 -0 0 0 -0 0 0 0 -0 -0 -0 -0 0 -0 -0 -0 -0 -0 -0 0 0 -0 -0 -0 -0 -1 -1 -1 -1 -0 -0 -1 -1 -0 -0 -0 nan
nan 0 0 0 0 0 0 -0 -0 -0 -0 -0 -0 -0 0 0 0 0 -0 -0 0 0 0 0 0 -0 -0 0 -0 0 0 0 -0 -0 -0 -0 -0 -0 -0 -0 -0 -0 -0 0 0 0 -0 -0 -0 -1 -1 -1 -1 -0 -0 -0 -0 -0 -1 -0 -0 nan
nan 0 0 0 -0 -0 0 -0 -0 -0 0 0 -0 -0 0 0 0 -0 -0 -0 0 0 -0 -0 0 -0 -0 0 -0 -0 0 -0 0 0 -0 -0 -0 -0 -0 -0 -0 -0 0 0 -0 -0 -0 -0 -1 -1 -1 -0 -0 -0 -0 -0 -0 -0 -1 -1 0 nan
nan 0 0 -0 -0 0 0 -0 -0 0 0 -0 -0 -0 0 0 0 -0 0 0 -0 -0 -0 -0 0 0 0 0 -0 -0 -0 0 0 0 -0 -0 -0 -0 -0 -0 -0 0 0 0 -0 -0 -0 -1 -1 -0 -0 -0 -0 -0 -0 -0 -1 -1 -1 -0 0 nan
nan 0 -0 -1 -0 0 -0 -0 -0 0 0 0 0 0 0 0 0 0 0 -0 -0 -0 -0 0 0 0 0 0 -0 -0 0 0 0 -0 -0 -0 -0 -0 0 -0 0 0 0 -0 -0 -0 -0 -0 -0 -0 -0 -0 -0 -0 -0 -1 -1 -1 -1 -0 -0 nan
nan -0 -0 -0 0 0 -0 0 0 0 0 0 0 0 0 0 0 0 0 -0 -0 -0 0 0 0 0 0 0 -0 0 0 0 0 -0 -0 -0 0 0 -0 0 0 0 0 -0 -0 -0 -0 -0 -0 -0 -0 -1 -1 -0 -1 -1 -1 -1 -1 -1 -1 nan
nan -0 0 0 0 0 0 0 1 0 0 0 0 0 0 0 0 0 0 -0 -0 -0 0 0 0 0 0 0 -0 0 0 0 -0 -0 -0 0 0 -0 -0 0 0 0 -0 -0 -0 -0 -0 -0 -0 -0 -1 -1 -1 -1 -1 -1 -1 -0 -1 -1 -1 nan
nan 0 0 1 0 0 0 0 0 0 -0 0 0 0 0 0 0 0 -0 -0 -0 -0 0 0 0 0 0 0 0 0 -0 -0 -0 0 0 0 0 -0 -0 0 0 0 -0 -0 -0 -0 -0 -0 -0 -0 -1 -1 -1 -1 -1 -1 -0 -1 -1 -1 -1 nan
nan 0 0 0 -0 -0 -0 -0 -0 -0 0 0 0 0 0 0 0 0 -0 -0 -0 -0 0 -0 0 0 0 0 0 -0 -0 -0 0 0 0 0 0 -0 0 0 0 0 -0 -0 -0 -0 -0 -0 -0 -0 -1 -1 -1 -1 -1 -1 -1 -1 -1 -1 -1 nan
nan -0 1 0 -1 -0 0 -0 -0 0 1 0 0 0 0 0 0 0 -0 -0 -0 -0 -0 0 0 0 0 0 -0 -0 -0 0 0 0 0 0 0 0 0 0 0 -0 -0 -0 -0 -0 -0 -0 -0 -1 -1 -1 -1 -0 -1 -1 -1 -1 -1 -0 -0 nan
nan nan nan nan nan nan nan nan nan nan nan nan nan nan nan nan nan nan nan nan nan nan nan nan nan nan nan nan nan nan nan nan nan nan nan nan nan nan nan nan nan nan nan nan nan nan nan nan nan nan nan nan nan nan nan nan nan nan nan nan nan nan
Wind_Speed
22 21 21 21 18 16 14 14 13 13 13 12 11 9 8 8 9 9 9 9 9 8 8 8 7 7 6 6 6 6 5 4 5 6 6 7 7 7 7 7 7 7 8 9 9 8 7 7 6 6 6 5 4 5 6 6 7 7 7 7 8 9
21 21 21 20 18 16 15 14 14 14 13 12 10 8 9 9 9 9 8 8 8 8 8 7 7 7 6 6 6 6 5 5 4 4 5 6 6 6 6 6 6 6 6 7 7 7 7 7 7 7 7 6 4 5 5 5 5 6 7 8 9 10
20 20 20 18 17 16 15 16 14 14 14 12 10 9 10 10 10 9 8 8 8 9 8 8 7 6 5 4 5 5 5 4 4 4 4 4 5 6 6 6 5 5 5 5 5 6 6 7 7 6 5 4 4 5 5 6 6 7 8 8 9 10
20 20 19 17 16 16 15 16 14 14 14 12 10 10 11 10 9 9 9 9 9 8 7 6 5 5 4 3 4 3 3 3 3 4 4 3 4 4 5 5 5 4 4 4 4 5 5 5 5 4 4 4 5 6 6 7 7 8 9 10 10 11
21 19 18 17 16 15 15 14 14 14 13 11 11 11 11 10 10 10 10 10 8 7 6 5 4 4 3 3 3 2 2 2 2 2 3 3 2 2 3 4 4 4 4 4 4 5 5 5 5 5 5 5 6 7 7 8 9 10 11 11 12 14
21 19 17 16 15 14 14 15 15 14 13 11 11 12 11 10 11 11 9 8 7 7 6 5 5 4 3 2 2 1 1 1 1 1 2 2 1 1 1 2 3 3 3 3 3 4 4 4 5 5 6 7 7 8 8 9 10 11 12 13 14 15
20 18 17 15 14 14 15 15 15 13 12 12 12 12 10 10 11 9 8 7 7 7 6 5 5 4 3 2 2 1 1 0 1 1 1 1 1 1 1 0 0 1 1 1 2 3 3 4 4 5 6 7 8 8 9 10 11 12 12 13 15 15
18 17 17 16 14 14 15 16 15 13 12 12 12 11 9 10 10 7 6 6 5 6 5 5 5 4 4 3 2 1 1 1 1 1 2 2 1 2 2 2 1 1 1 2 3 4 4 5 5 6 7 8 9 10 10 11 11 12 12 13 14 15
17 17 16 16 14 14 15 17 15 13 13 13 12 10 9 9 9 6 5 5 4 5 5 5 4 3 3 3 2 2 2 2 2 1 2 2 2 2 2 2 2 2 2 2 3 5 5 6 7 8 9 10 10 11 11 12 12 12 12 13 14 15
17 17 16 15 14 13 15 16 14 13 14 13 11 9 8 7 8 6 5 5 4 3 3 3 3 2 2 2 2 3 3 2 2 1 1 1 2 2 2 2 2 2 2 3 4 5 6 7 8 9 9 10 11 11 11 12 12 12 13 12 13 14
17 17 15 15 14 13 15 15 14 14 14 12 10 8 7 6 7 6 5 4 3 2 1 2 2 2 2 3 3 3 3 2 1 1 1 1 2 2 2 2 2 3 3 3 4 5 6 7 8 9 9 10 10 11 11 11 12 12 12 11 11 11
17 17 15 14 14 15 15 15 14 15 14 11 10 8 7 6 6 5 4 3 2 1 1 2 3 3 3 2 3 3 3 2 3 2 2 2 3 3 3 3 4 4 5 5 6 6 7 8 9 9 10 10 11 11 11 10 10 10 10 10 9 9
17 16 15 15 15 16 16 15 15 15 14 12 10 8 7 6 5 4 3 2 2 1 2 3 4 4 3 2 2 3 4 4 4 3 3 4 5 5 5 5 5 6 7 7 7 8 8 9 10 10 10 10 10 10 10 9 9 9 9 9 9 9
17 16 16 16 16 16 16 16 16 15 13 11 9 8 7 6 5 3 2 1 1 1 3 3 4 3 2 2 2 3 5 5 5 4 5 6 6 7 7 7 7 8 8 8 8 9 9 9 10 10 10 10 10 9 9 9 9 8 8 8 8 9
18 18 17 17 17 17 17 17 17 15 13 11 9 8 7 6 4 2 1 1 1 1 2 3 3 3 2 1 2 4 5 5 5 5 6 6 7 7 8 8 8 8 8 9 9 10 9 9 9 10 9 9 9 8 8 8 7 7 7 7 8 9
20 19 18 18 19 19 18 18 17 15 13 10 9 8 7 6 4 3 2 1 1 1 1 1 2 3 3 2 3 5 5 5 5 5 6 7 7 7 8 8 8 8 9 9 10 10 10 9 9 9 8 8 7 7 7 6 6 6 6 7 8 9
22 20 19 20 21 20 19 19 17 15 13 10 9 9 7 6 4 3 2 2 2 1 1 1 1 2 3 2 3 4 5 5 6 6 6 6 7 8 8 8 8 8 9 9 9 10 9 8 8 7 6 6 5 5 5 4 4 5 6 7 9 10
22 20 20 21 22 21 19 18 17 15 13 11 10 9 7 6 4 4 3 1 2 3 3 2 1 1 2 2 2 4 5 5 6 6 6 6 7 8 8 9 9 9 9 8 7 7 6 5 5 4 3 3 3 3 2 3 5 6 8 9 11 12
22 21 20 22 22 20 19 18 17 16 14 12 11 8 7 6 5 4 3 2 4 4 2 1 1 0 1 2 2 3 4 5 6 7 7 7 8 8 9 10 9 8 7 5 5 4 4 3 2 2 2 2 2 1 2 4 6 7 9 11 12 13
22 20 20 22 22 21 20 18 17 16 15 13 10 8 6 7 6 5 4 4 4 3 2 1 1 1 1 2 3 4 4 6 7 7 8 8 8 8 9 8 7 6 5 5 5 5 4 2 1 2 2 3 2 1 3 5 7 9 10 11 12 13
21 19 20 21 20 20 19 18 17 15 14 12 9 8 7 7 7 6 6 5 4 3 2 1 0 1 2 4 5 6 7 8 8 8 8 7 7 7 6 5 5 6 6 6 5 4 3 1 1 2 3 4 2 1 3 6 8 9 10 12 13 14
20 21 21 20 19 19 18 17 15 14 12 11 9 8 8 8 7 7 7 5 3 2 2 1 1 3 5 7 8 9 10 10 8 7 6 6 6 5 4 4 5 6 6 6 5 4 4 2 1 3 3 3 2 1 3 6 8 8 11 13 15 15
24 24 21 22 22 19 18 15 13 12 11 10 9 8 8 8 8 8 7 5 3 2 1 1 3 5 8 10 11 11 10 9 7 6 6 5 4 4 4 5 6 6 6 6 5 4 4 3 1 2 2 2 3 4 3 5 7 9 12 14 15 16
25 22 19 22 22 19 18 15 13 12 11 9 8 8 8 8 9 8 7 4 3 1 2 3 6 8 10 12 12 11 9 7 6 5 5 4 5 6 6 6 6 6 7 6 5 5 7 7 6 4 3 3 5 6 5 4 6 10 12 14 15 16
21 19 19 21 21 19 18 16 15 14 12 11 10 9 9 10 10 9 6 4 3 2 3 5 8 10 11 12 10 7 6 4 4 4 4 5 6 6 7 6 7 7 6 6 7 7 8 10 10 9 7 6 6 6 6 4 5 8 10 13 15 16
19 19 19 20 19 18 17 16 16 16 14 13 13 11 9 9 10 9 6 4 2 2 4 7 9 11 12 10 6 3 2 3 3 5 5 6 7 7 7 7 7 7 6 8 9 8 9 10 10 11 11 10 9 9 10 8 6 6 6 12 16 16
18 18 19 18 17 17 17 17 17 15 13 12 11 10 9 8 9 8 6 3 2 3 6 8 10 12 10 7 3 1 2 3 5 5 6 7 7 7 8 7 7 8 8 10 10 9 10 10 10 11 13 13 13 13 13 12 10 7 4 8 16 17
17 18 17 16 16 16 16 16 16 13 12 12 10 9 9 8 8 8 5 3 2 5 7 9 11 10 7 3 1 3 4 5 6 6 6 7 7 7 8 8 8 9 9 10 10 10 11 11 12 14 15 14 14 14 13 13 13 12 9 7 14 19
17 18 17 16 16 14 14 14 13 11 11 12 10 8 8 8 8 7 5 3 4 5 7 9 10 7 4 2 3 4 5 6 6 6 7 7 7 8 8 8 8 9 9 9 10 10 11 13 14 15 15 14 14 13 12 14 14 16 16 13 15 20
18 18 17 16 14 13 14 13 10 10 10 10 10 9 9 8 8 6 4 3 4 5 8 10 8 4 3 2 4 5 5 6 6 6 7 8 8 9 8 8 8 9 9 9 10 11 12 14 14 13 13 12 13 13 13 15 17 18 19 18 18 20
19 18 17 15 12 13 14 11 9 11 11 9 10 9 9 8 7 5 4 3 4 7 9 9 5 3 3 3 5 5 6 6 6 7 8 9 9 8 8 8 8 9 9 10 11 12 12 13 13 12 12 12 13 15 15 17 19 19 19 20 19 19
18 17 15 14 12 14 13 11 12 12 11 11 10 8 8 7 6 4 3 3 5 7 8 5 3 3 3 4 5 5 5 6 6 8 8 8 8 8 9 9 9 9 10 11 12 12 12 12 12 11 12 14 14 15 16 18 19 19 19 19 19 20
17 16 16 15 14 14 13 12 14 13 11 11 9 8 7 6 5 4 3 4 6 7 5 2 3 4 4 4 5 5 5 6 7 8 8 8 8 9 10 9 9 10 10 12 12 11 11 11 12 13 13 15 15 16 17 18 18 18 18 19 20 21
16 16 16 15 15 15 14 13 14 14 12 12 9 8 8 6 5 4 4 5 6 5 3 1 4 4 4 5 5 5 5 6 7 8 8 8 9 10 10 10 10 10 10 12 11 11 11 12 12 13 14 15 16 17 18 18 18 18 19 20 21 22
16 15 15 16 16 16 15 14 14 14 13 12 10 9 8 6 5 4 5 5 5 4 1 2 4 5 5 5 5 5 5 6 7 8 8 8 9 10 11 10 10 10 10 11 11 11 12 12 13 14 14 15 16 16 17 18 18 19 20 21 22 23
16 15 15 17 17 16 16 15 15 15 14 13 11 9 8 7 6 5 5 4 4 2 1 2 5 5 5 5 5 5 5 6 7 7 8 9 9 11 11 10 10 9 10 11 10 11 12 12 13 14 14 15 15 16 17 18 18 19 20 21 22 22
17 17 17 18 18 17 17 17 17 17 14 13 11 10 9 9 7 6 5 4 2 1 1 3 6 6 5 5 5 5 5 6 7 7 8 9 10 11 10 9 9 9 10 11 10 10 12 12 12 13 13 14 14 16 17 17 18 19 20 21 21 22
Wind_Direction
190 188 186 183 182 176 177 185 184 181 181 180 180 168 154 146 138 133 130 127 124 123 120 115 110 103 96 90 88 87 90 105 126 134 132 133 135 137 137 139 153 175 194 204 208 210 211 211 213 223 237 247 268 298 311 313 313 319 326 334 338 336
192 189 186 186 183 174 177 187 183 182 182 182 179 165 153 144 138 136 133 130 127 127 125 119 110 98 89 86 81 80 82 88 102 126 139 142 144 145 149 149 152 164 183 200 209 215 218 220 223 231 245 257 278 301 309 310 313 318 325 333 334 331
192 189 185 184 180 173 180 188 182 182 184 181 175 163 152 143 138 138 138 137 133 131 128 121 112 98 92 88 81 73 69 73 80 95 119 143 155 160 159 159 163 172 182 190 198 207 212 217 225 236 249 264 284 297 300 305 313 317 323 329 327 323
192 189 184 182 179 176 185 188 182 184 185 179 172 161 149 143 141 139 141 143 139 136 130 124 117 109 110 97 86 77 60 54 59 73 89 113 146 165 171 172 176 184 188 189 193 199 203 210 221 236 252 267 281 290 297 307 316 319 320 321 317 315
193 189 184 184 183 182 186 185 184 186 183 175 170 159 147 144 145 142 141 143 143 140 135 130 120 114 110 87 78 86 75 44 29 45 67 85 104 135 159 176 185 191 192 190 195 202 209 218 234 252 267 276 284 292 299 308 315 317 315 313 312 313
195 190 186 186 186 185 186 186 187 187 182 175 168 157 148 147 147 146 143 144 147 145 141 134 123 117 107 81 76 90 97 27 336 352 27 48 56 70 104 150 177 189 198 202 209 221 232 245 261 274 284 289 295 301 306 313 315 315 311 309 310 313
197 190 186 188 187 187 188 189 189 186 183 177 167 158 155 153 151 147 148 153 154 149 143 135 127 121 115 95 90 103 116 64 311 309 335 339 336 327 339 9 170 184 201 245 271 276 276 279 288 296 304 310 315 318 318 318 315 313 310 308 310 313
196 188 186 188 188 188 189 190 188 186 183 176 167 163 161 159 157 149 148 160 158 150 145 139 137 133 127 114 102 90 95 65 4 325 317 303 297 300 299 303 310 321 312 307 306 309 313 314 320 322 325 329 330 328 324 319 316 313 311 310 312 315
193 187 185 187 188 187 188 191 190 185 180 174 168 166 165 162 160 155 152 165 164 150 143 136 133 130 124 124 115 70 57 52 37 351 317 288 284 300 301 299 300 305 302 310 318 323 329 332 334 334 333 333 331 327 323 319 317 314 314 313 314 316
190 188 185 185 186 185 188 192 190 183 177 172 170 167 167 163 161 161 159 168 169 154 142 130 116 101 95 96 86 62 51 50 50 13 338 315 319 325 320 314 309 312 324 331 332 330 334 337 335 333 332 331 327 324 322 320 318 316 316 315 314 314
190 189 185 185 184 183 188 191 187 180 176 173 174 172 170 164 162 163 161 164 163 154 125 99 77 54 50 40 41 54 53 46 49 37 20 351 355 355 342 338 335 341 346 344 340 337 340 340 333 329 328 327 326 326 323 321 320 318 317 316 314 314
192 190 187 184 184 185 184 185 183 179 178 180 179 177 173 162 163 166 158 157 151 148 67 41 20 16 21 15 29 51 46 39 39 33 28 18 18 14 0 350 347 350 352 352 349 345 343 337 329 326 326 327 327 326 325 325 326 325 325 324 322 321
195 194 191 187 186 185 181 180 181 181 181 184 183 181 174 163 166 167 155 160 151 124 49 25 6 7 10 6 35 46 33 29 26 20 19 17 15 8 359 352 349 350 351 351 346 339 336 330 325 324 325 326 327 328 331 334 335 334 334 332 330 328
197 197 194 192 189 186 182 180 182 182 182 185 187 185 177 170 172 170 167 170 149 93 46 21 10 10 357 0 31 29 19 14 11 14 16 10 4 357 350 347 346 346 345 341 333 327 328 327 324 325 327 329 330 333 336 335 335 335 335 333 332 329
198 198 197 194 191 190 185 183 184 183 185 188 189 188 183 181 179 186 202 189 159 80 37 17 22 15 341 347 18 11 6 4 2 7 10 4 356 349 343 340 337 336 334 329 323 320 322 325 326 327 328 329 330 331 330 330 331 331 330 331 331 327
200 199 198 196 192 192 187 185 187 186 190 193 193 194 189 184 187 199 203 191 173 101 13 355 25 10 343 348 7 4 2 358 355 357 2 357 347 341 336 330 327 326 324 322 318 315 317 321 322 320 320 322 324 324 323 324 325 327 331 335 335 333
202 199 200 198 192 189 186 186 189 191 194 198 199 198 191 186 192 197 185 171 171 190 264 272 9 346 335 347 4 1 356 350 349 352 352 345 337 331 327 323 323 322 319 319 314 310 312 314 312 309 310 315 318 316 315 320 331 342 347 346 342 341
202 200 200 194 186 184 184 186 190 195 199 202 202 196 191 191 196 193 176 163 193 217 235 216 190 309 318 334 351 341 337 340 341 342 336 331 327 324 324 324 324 324 324 324 316 312 317 317 310 304 304 303 298 298 314 344 355 355 351 347 346 345
201 199 194 186 183 183 184 187 192 198 204 206 203 195 193 198 200 193 177 191 208 213 223 193 168 218 298 316 325 324 328 330 328 329 327 325 323 322 325 327 327 331 336 340 337 339 345 340 318 290 272 260 248 267 7 11 359 354 352 351 353 353
197 193 186 181 184 185 184 190 197 202 207 207 203 199 202 204 202 194 187 204 206 196 193 156 141 227 283 301 307 315 323 323 320 319 319 319 319 321 323 326 335 346 356 3 2 5 9 353 294 239 225 225 201 126 33 15 358 353 358 3 7 8
190 189 184 181 186 189 189 195 200 203 206 209 209 206 208 208 202 195 194 202 198 176 170 150 104 304 317 316 317 324 327 325 322 317 315 316 320 323 327 339 356 5 11 14 7 10 20 22 245 235 223 218 202 90 11 359 352 356 10 19 21 19
185 191 187 184 190 195 197 202 206 207 209 213 213 206 205 207 201 195 195 195 189 170 158 148 301 305 321 325 327 329 326 326 325 324 324 325 330 340 356 8 10 11 16 14 10 15 28 44 247 254 239 215 200 81 4 350 354 14 28 29 26 22
185 193 189 186 191 198 204 208 212 213 215 217 209 202 202 204 199 191 188 184 182 177 172 245 292 307 318 322 324 322 320 323 327 333 340 346 3 20 26 21 15 16 17 15 20 37 53 63 115 218 218 181 148 121 69 10 16 32 31 28 24 21
186 192 194 190 192 201 208 209 212 214 218 216 205 204 205 199 190 185 184 182 184 211 256 286 303 312 317 316 315 313 314 323 333 346 2 17 31 32 29 23 18 20 20 23 34 59 75 76 84 102 138 139 120 112 96 49 45 42 31 27 23 22
189 193 199 196 195 204 208 208 209 207 206 205 201 204 206 198 188 185 188 186 187 224 274 300 309 313 314 311 307 306 315 334 355 19 30 34 37 32 29 24 23 28 26 35 45 55 71 73 73 77 88 104 105 95 89 86 76 56 38 30 27 25
197 193 198 199 201 209 212 214 216 209 203 200 199 201 206 204 196 191 191 191 198 258 294 306 312 314 311 303 297 308 348 19 40 46 42 39 38 31 29 28 31 38 35 47 53 52 63 66 65 66 68 75 80 79 80 84 95 90 55 38 34 30
200 194 198 203 209 215 216 221 225 222 215 209 208 210 208 209 207 202 198 202 238 291 302 307 313 314 305 291 288 52 63 66 60 52 44 40 38 32 35 37 39 44 43 50 54 46 52 57 56 57 58 59 61 64 65 68 82 93 88 50 37 34
203 203 205 210 216 221 220 222 226 226 219 213 221 226 213 208 209 208 205 215 269 289 298 308 313 311 295 271 142 93 85 75 62 51 45 41 41 40 45 46 45 49 48 52 53 44 46 50 48 50 51 51 51 54 55 58 65 63 64 60 33 31
205 209 210 215 220 223 221 223 230 226 209 204 215 220 213 211 208 206 210 233 271 287 300 311 313 301 262 211 117 98 86 74 62 52 48 47 50 51 53 54 55 59 56 54 53 46 45 47 48 49 49 49 49 51 51 51 53 50 50 51 33 26
206 211 211 217 223 225 223 223 225 210 191 200 219 214 208 212 208 207 222 250 284 303 310 314 307 270 206 157 113 97 83 73 62 55 55 55 58 59 63 66 67 69 64 58 55 49 48 49 51 52 51 51 49 47 46 44 43 41 40 40 33 25
208 210 212 221 223 225 226 216 203 193 184 202 223 215 209 214 211 213 232 264 303 311 313 311 286 214 172 132 107 92 80 73 63 60 62 63 68 73 78 80 77 73 67 60 57 51 51 54 52 52 50 47 45 43 42 40 38 36 33 32 30 25
210 212 220 227 221 219 220 201 189 191 191 201 214 215 217 221 219 224 242 282 307 308 310 300 230 178 148 121 99 88 78 71 65 65 68 72 82 87 84 83 77 72 66 60 58 53 52 53 50 48 46 44 43 41 40 39 36 33 31 29 28 26
212 214 224 228 221 217 214 198 186 186 191 198 206 214 218 222 225 232 258 287 304 309 308 270 179 157 139 117 98 92 79 72 71 72 78 83 88 89 83 79 73 67 64 60 58 55 52 52 48 46 44 42 40 38 37 38 34 30 29 28 27 24
217 217 223 222 214 208 203 197 187 183 186 192 199 209 214 219 223 236 265 285 307 318 310 191 155 152 139 119 104 97 83 80 81 80 85 88 88 87 80 74 70 64 61 59 57 54 52 51 48 45 43 40 37 36 36 34 31 29 29 28 26 24
223 222 220 211 209 207 198 193 189 187 187 190 198 207 211 216 222 243 274 293 316 325 320 149 153 154 141 125 110 102 93 89 87 86 90 91 88 85 78 71 67 61 58 59 55 52 52 50 47 44 41 39 36 35 34 31 29 29 28 27 25 24
226 224 218 209 211 208 194 189 191 194 193 191 199 209 214 222 231 254 282 295 309 324 8 150 158 155 142 130 116 108 102 94 92 92 94 93 87 82 75 68 65 60 59 59 53 51 52 48 45 43 39 38 35 34 33 31 30 29 28 27 25 24
219 214 216 213 211 202 191 193 197 197 197 195 202 212 218 227 239 257 273 271 286 331 137 160 158 153 144 133 122 113 105 99 101 100 97 93 86 81 76 69 66 62 60 59 53 50 50 46 44 42 39 37 35 34 34 33 32 31 28 26 25 24
Height
1548 1550 1551 1553 1554 1557 1559 1560 1561 1561 1562 1563 1563 1564 1564 1565 1565 1565 1565 1564 1564 1564 1564 1565 1565 1566 1566 1566 1567 1567 1567 1567 1567 1567 1567 1567 1567 1567 1568 1568 1569 1570 1571 1571 1571 1572 1572 1572 1573 1572 1572 1573 1573 1574 1574 1574 1573 1573 1573 1573 1572 1572
1548 1550 1551 1552 1554 1556 1558 1560 1561 1561 1562 1563 1564 1564 1565 1565 1565 1566 1565 1565 1565 1565 1565 1565 1566 1566 1567 1567 1567 1567 1568 1568 1568 1568 1568 1568 1568 1568 1568 1569 1569 1570 1571 1571 1572 1572 1572 1572 1573 1572 1573 1573 1573 1574 1574 1573 1573 1573 1573 1572 1572 1571
1549 1550 1551 1553 1554 1556 1558 1559 1560 1561 1562 1563 1564 1564 1565 1565 1566 1566 1566 1566 1566 1566 1565 1566 1566 1566 1567 1567 1568 1568 1568 1568 1568 1568 1568 1568 1568 1568 1568 1569 1569 1570 1571 1572 1572 1572 1572 1572 1573 1573 1573 1573 1573 1573 1573 1573 1573 1573 1572 1572 1572 1571
1549 1551 1552 1553 1555 1556 1558 1559 1560 1561 1562 1562 1563 1564 1565 1565 1566 1566 1567 1567 1567 1566 1566 1566 1566 1567 1567 1567 1568 1568 1568 1568 1569 1569 1569 1569 1569 1569 1569 1569 1570 1570 1571 1572 1572 1572 1573 1573 1573 1573 1573 1573 1573 1573 1573 1573 1572 1572 1572 1571 1570 1569
1548 1550 1552 1553 1554 1556 1558 1559 1560 1561 1562 1562 1563 1564 1565 1565 1565 1566 1567 1567 1567 1567 1567 1567 1567 1567 1567 1567 1568 1568 1568 1569 1569 1569 1569 1569 1569 1569 1569 1570 1570 1571 1571 1572 1573 1573 1573 1573 1573 1573 1573 1573 1573 1573 1572 1572 1572 1571 1571 1570 1569 1568
1548 1549 1551 1553 1554 1556 1557 1559 1560 1561 1561 1562 1563 1564 1564 1565 1565 1566 1567 1567 1568 1567 1567 1567 1567 1567 1567 1567 1567 1568 1568 1569 1569 1569 1569 1569 1570 1570 1570 1570 1570 1571 1571 1572 1573 1573 1573 1573 1573 1572 1572 1572 1572 1572 1571 1571 1571 1570 1570 1569 1568 1567
1547 1549 1551 1553 1554 1556 1557 1558 1559 1561 1561 1562 1563 1563 1564 1565 1565 1566 1567 1568 1568 1567 1567 1567 1567 1568 1567 1567 1567 1568 1568 1569 1569 1570 1570 1569 1569 1570 1570 1570 1570 1571 1571 1572 1573 1573 1573 1572 1572 1572 1572 1571 1571 1571 1570 1570 1570 1569 1569 1568 1566 1566
1547 1549 1551 1552 1554 1555 1557 1558 1559 1560 1561 1562 1563 1563 1564 1564 1565 1566 1567 1568 1568 1567 1567 1567 1567 1568 1567 1567 1567 1568 1568 1569 1569 1570 1570 1570 1569 1570 1570 1570 1570 1570 1571 1571 1572 1572 1572 1572 1571 1571 1570 1570 1569 1569 1569 1568 1568 1568 1567 1566 1565 1564
1546 1548 1550 1552 1553 1554 1556 1557 1559 1560 1561 1562 1563 1564 1564 1564 1565 1566 1567 1567 1568 1568 1567 1567 1568 1568 1568 1567 1567 1568 1568 1569 1569 1570 1570 1570 1570 1570 1570 1570 1570 1570 1570 1570 1571 1571 1571 1571 1570 1570 1569 1569 1568 1568 1567 1567 1567 1566 1566 1565 1564 1563
1546 1548 1549 1551 1552 1554 1555 1557 1559 1560 1561 1562 1563 1564 1564 1565 1565 1566 1566 1567 1567 1567 1567 1567 1567 1567 1567 1568 1568 1568 1568 1568 1569 1569 1570 1570 1570 1570 1570 1570 1570 1570 1570 1570 1570 1570 1570 1570 1569 1569 1568 1568 1567 1566 1566 1565 1565 1565 1564 1564 1563 1562
1545 1547 1549 1551 1552 1554 1555 1557 1559 1560 1561 1562 1563 1564 1565 1566 1565 1566 1566 1566 1567 1567 1567 1567 1567 1567 1567 1568 1568 1568 1569 1569 1569 1569 1570 1570 1570 1570 1570 1570 1570 1570 1570 1570 1569 1569 1569 1569 1569 1568 1567 1567 1566 1565 1565 1564 1564 1564 1563 1563 1562 1561
1545 1547 1549 1550 1552 1553 1555 1557 1558 1560 1561 1562 1563 1564 1565 1566 1566 1566 1566 1566 1566 1567 1566 1566 1567 1567 1568 1568 1568 1569 1569 1569 1569 1569 1570 1570 1570 1570 1570 1570 1570 1570 1570 1570 1569 1569 1569 1568 1568 1567 1567 1566 1565 1564 1564 1564 1563 1563 1562 1562 1561 1561
1544 1547 1548 1550 1552 1553 1555 1556 1558 1559 1561 1562 1563 1563 1564 1565 1566 1566 1566 1566 1566 1566 1566 1566 1567 1567 1568 1568 1569 1569 1569 1569 1569 1569 1569 1570 1570 1570 1570 1570 1570 1570 1570 1570 1569 1569 1568 1568 1567 1567 1566 1565 1564 1564 1563 1563 1562 1562 1561 1561 1560 1560
1544 1546 1548 1550 1551 1553 1554 1555 1557 1559 1560 1561 1562 1563 1564 1565 1566 1566 1566 1567 1566 1566 1566 1567 1567 1568 1568 1568 1569 1569 1569 1569 1569 1569 1569 1570 1569 1569 1569 1569 1569 1569 1570 1570 1569 1569 1568 1568 1567 1566 1565 1564 1563 1563 1563 1562 1562 1561 1561 1560 1560 1559
1543 1545 1547 1549 1551 1552 1553 1555 1556 1558 1559 1560 1562 1562 1564 1564 1565 1566 1566 1566 1566 1566 1566 1567 1567 1567 1568 1568 1569 1569 1569 1569 1569 1569 1569 1569 1569 1569 1569 1569 1569 1569 1569 1569 1569 1568 1568 1567 1567 1566 1565 1564 1563 1563 1562 1562 1561 1561 1560 1560 1560 1559
1542 1544 1545 1547 1549 1551 1552 1554 1556 1557 1559 1560 1561 1562 1563 1564 1564 1565 1565 1566 1566 1566 1566 1567 1567 1567 1568 1568 1568 1569 1569 1569 1569 1569 1569 1569 1569 1569 1569 1569 1569 1569 1569 1569 1568 1568 1567 1567 1566 1565 1564 1563 1563 1562 1562 1562 1561 1561 1560 1560 1559 1559
1541 1542 1544 1546 1548 1550 1552 1553 1555 1557 1558 1559 1560 1561 1562 1563 1563 1564 1565 1565 1566 1566 1566 1566 1567 1567 1568 1568 1568 1568 1568 1568 1569 1569 1569 1569 1569 1568 1568 1568 1568 1568 1569 1569 1568 1567 1567 1566 1566 1565 1564 1563 1562 1562 1562 1561 1561 1560 1560 1559 1559 1558
1539 1541 1542 1545 1547 1550 1551 1553 1554 1556 1557 1558 1559 1560 1561 1562 1562 1563 1564 1565 1565 1566 1566 1566 1567 1567 1568 1568 1568 1568 1568 1568 1568 1568 1568 1568 1568 1568 1567 1567 1567 1568 1568 1568 1567 1567 1566 1566 1565 1564 1563 1563 1562 1562 1562 1561 1561 1560 1560 1559 1558 1558
1539 1540 1541 1544 1547 1549 1551 1552 1554 1555 1556 1557 1558 1558 1559 1560 1561 1562 1563 1564 1565 1565 1565 1566 1566 1567 1568 1568 1568 1568 1568 1568 1568 1568 1568 1567 1567 1567 1567 1566 1566 1567 1567 1567 1567 1566 1566 1565 1565 1564 1563 1562 1562 1562 1561 1561 1560 1560 1559 1559 1558 1557
1539 1541 1543 1544 1546 1547 1549 1551 1552 1554 1555 1555 1556 1557 1558 1559 1560 1561 1562 1563 1564 1564 1564 1565 1566 1567 1567 1568 1568 1568 1568 1568 1567 1567 1567 1567 1566 1566 1566 1566 1566 1566 1566 1566 1566 1566 1565 1565 1564 1563 1563 1562 1562 1562 1561 1561 1560 1559 1559 1558 1558 1557
1539 1542 1545 1546 1547 1547 1548 1550 1551 1552 1553 1554 1555 1556 1557 1558 1559 1560 1561 1562 1563 1563 1564 1564 1565 1566 1567 1567 1567 1567 1567 1567 1567 1566 1566 1565 1565 1565 1565 1565 1565 1565 1566 1565 1565 1565 1564 1564 1564 1563 1562 1562 1562 1562 1561 1561 1560 1559 1559 1558 1557 1557
1539 1542 1543 1544 1546 1547 1548 1549 1550 1551 1552 1553 1554 1556 1557 1557 1558 1559 1560 1561 1561 1562 1563 1564 1565 1565 1566 1566 1566 1566 1566 1566 1565 1565 1565 1564 1564 1564 1564 1565 1565 1565 1565 1565 1565 1564 1564 1563 1563 1563 1562 1562 1562 1562 1561 1561 1560 1559 1558 1558 1557 1556
1538 1540 1541 1541 1542 1545 1547 1548 1550 1551 1552 1553 1554 1555 1556 1557 1558 1558 1559 1559 1560 1561 1562 1563 1564 1564 1565 1565 1565 1565 1565 1565 1564 1564 1564 1563 1563 1564 1564 1564 1564 1564 1564 1564 1564 1564 1563 1563 1563 1562 1562 1562 1562 1562 1562 1561 1560 1559 1558 1558 1557 1557
1538 1539 1540 1539 1541 1544 1546 1548 1549 1550 1551 1552 1554 1555 1556 1557 1557 1557 1558 1558 1559 1560 1561 1562 1563 1564 1564 1564 1564 1564 1564 1564 1563 1563 1562 1562 1563 1563 1563 1563 1563 1564 1563 1564 1564 1563 1563 1562 1562 1562 1562 1562 1562 1562 1562 1561 1560 1559 1558 1558 1558 1557
1538 1539 1539 1539 1540 1543 1545 1547 1548 1549 1550 1552 1553 1554 1555 1556 1557 1557 1557 1558 1559 1560 1561 1562 1562 1563 1562 1562 1563 1563 1563 1562 1562 1562 1562 1562 1562 1562 1563 1563 1563 1563 1563 1563 1563 1563 1562 1562 1562 1561 1561 1561 1561 1561 1562 1561 1560 1560 1559 1559 1558 1557
1537 1538 1539 1539 1540 1542 1544 1545 1546 1548 1549 1551 1552 1553 1554 1555 1556 1557 1557 1558 1559 1560 1561 1561 1561 1561 1561 1562 1562 1562 1561 1561 1561 1561 1561 1561 1562 1562 1562 1563 1563 1563 1563 1562 1562 1563 1562 1562 1561 1561 1561 1561 1561 1561 1561 1561 1561 1561 1560 1559 1558 1557
1536 1537 1538 1538 1539 1541 1543 1544 1546 1547 1550 1552 1552 1553 1554 1554 1556 1557 1557 1557 1558 1559 1560 1560 1560 1560 1560 1561 1561 1561 1561 1561 1561 1561 1561 1561 1562 1562 1562 1562 1562 1562 1562 1562 1562 1562 1562 1561 1561 1561 1560 1560 1560 1560 1561 1561 1561 1561 1561 1560 1559 1557
1534 1535 1536 1537 1539 1541 1543 1544 1545 1548 1551 1552 1553 1553 1553 1554 1556 1557 1557 1557 1557 1558 1559 1559 1560 1559 1560 1560 1560 1560 1560 1560 1561 1561 1561 1561 1562 1562 1562 1562 1562 1562 1562 1562 1562 1562 1561 1561 1560 1560 1560 1560 1560 1560 1560 1561 1561 1561 1561 1560 1559 1557
1532 1533 1535 1536 1538 1539 1541 1542 1544 1548 1550 1552 1553 1553 1553 1554 1556 1556 1556 1557 1557 1558 1558 1558 1558 1559 1559 1559 1559 1560 1560 1560 1561 1561 1561 1562 1562 1562 1562 1562 1562 1562 1562 1562 1562 1562 1561 1560 1560 1560 1560 1560 1560 1560 1561 1561 1560 1560 1559 1559 1558 1557
1530 1531 1533 1534 1536 1538 1539 1540 1544 1547 1550 1552 1553 1552 1553 1554 1555 1556 1556 1556 1557 1557 1557 1557 1558 1558 1558 1559 1559 1559 1560 1560 1561 1561 1561 1561 1561 1561 1562 1562 1563 1563 1563 1563 1562 1562 1561 1561 1560 1560 1560 1561 1560 1560 1560 1560 1559 1559 1558 1558 1558 1557
1527 1528 1530 1532 1534 1536 1538 1540 1543 1547 1550 1552 1553 1552 1552 1553 1554 1555 1556 1556 1556 1556 1556 1556 1557 1557 1558 1558 1559 1559 1560 1560 1561 1561 1561 1561 1561 1562 1562 1563 1563 1563 1563 1563 1562 1562 1562 1562 1562 1562 1561 1561 1561 1560 1560 1559 1559 1558 1558 1558 1558 1557
1524 1526 1528 1530 1533 1535 1537 1539 1542 1546 1549 1550 1551 1552 1552 1552 1554 1555 1555 1555 1556 1556 1555 1556 1556 1556 1557 1557 1558 1559 1560 1560 1561 1561 1561 1561 1562 1562 1563 1563 1563 1563 1563 1563 1563 1563 1562 1562 1562 1562 1561 1561 1560 1560 1560 1559 1559 1559 1559 1558 1558 1558
1522 1525 1526 1529 1532 1534 1536 1539 1542 1545 1548 1549 1549 1551 1551 1552 1553 1554 1554 1555 1555 1555 1554 1555 1555 1555 1556 1557 1558 1559 1560 1560 1560 1561 1561 1562 1562 1563 1563 1563 1563 1563 1563 1563 1563 1563 1563 1563 1562 1562 1561 1561 1560 1560 1560 1559 1560 1559 1559 1559 1558 1557
1521 1524 1526 1528 1531 1534 1537 1540 1543 1544 1546 1547 1548 1549 1551 1552 1552 1553 1554 1554 1554 1554 1553 1554 1554 1555 1556 1557 1558 1559 1559 1560 1560 1560 1561 1562 1562 1562 1563 1563 1563 1563 1563 1563 1564 1564 1564 1563 1563 1562 1561 1561 1560 1560 1560 1560 1560 1560 1559 1558 1557 1556
1521 1523 1526 1529 1531 1534 1537 1540 1542 1543 1544 1546 1547 1548 1550 1551 1551 1552 1552 1553 1553 1553 1553 1553 1553 1554 1556 1557 1558 1559 1559 1560 1560 1560 1561 1562 1562 1562 1563 1563 1563 1563 1564 1564 1564 1564 1564 1563 1563 1562 1562 1561 1561 1561 1561 1560 1560 1559 1559 1558 1557 1556
1521 1524 1526 1529 1531 1534 1536 1538 1540 1542 1543 1545 1546 1547 1548 1549 1550 1551 1551 1552 1552 1552 1552 1552 1553 1554 1556 1557 1558 1558 1559 1559 1560 1561 1561 1562 1562 1562 1563 1563 1563 1564 1564 1564 1564 1564 1564 1563 1563 1562 1562 1562 1562 1562 1561 1561 1560 1559 1558 1558 1557 1556
1522 1524 1526 1528 1531 1533 1536 1538 1540 1541 1543 1544 1545 1546 1547 1548 1549 1550 1551 1551 1551 1551 1552 1552 1553 1554 1555 1556 1557 1558 1558 1559 1560 1561 1561 1561 1562 1562 1563 1563 1564 1564 1564 1564 1564 1564 1563 1563 1563 1563 1563 1563 1563 1562 1562 1561 1560 1559 1559 1558 1557 1556